This is the latest recevied weather packets stored in our database for station/object S57ZT-10. If no packets are shown the sender has not sent any weather packets the latest 10 day(s).
| Time | Temp. | Humidity | Pressure | Rain* | Wind** | Luminosity | Snow |
|---|---|---|---|---|---|---|---|
| 1777923202 | 23.33° C | 28% | 1015.8 hPa | - | - | - | - |
| 1777922295 | 23.33° C | 27% | 1015.8 hPa | - | - | - | - |
| 1777921403 | 23.89° C | 26% | 1015.7 hPa | - | - | - | - |
| 1777919598 | 25° C | 27% | 1015.5 hPa | - | - | - | - |
| 1777918707 | 25.56° C | 27% | 1015.3 hPa | - | - | - | - |
| 1777917798 | 25.56° C | 27% | 1015.3 hPa | - | - | - | - |
| 1777916880 | 26.11° C | 27% | 1015 hPa | - | - | - | - |
| 1777915096 | 26.11° C | 26% | 1015.1 hPa | - | - | - | - |
| 1777913362 | 26.67° C | 26% | 1015 hPa | - | - | - | - |
| 1777913302 | 26.67° C | 26% | 1015 hPa | - | - | - | - |
| 1777912398 | 26.67° C | 25% | 1014.9 hPa | - | - | - | - |
| 1777910598 | 27.78° C | 24% | 1015 hPa | - | - | - | - |
| 1777909703 | 28.33° C | 23% | 1015 hPa | - | - | - | - |
| 1777908875 | 28.33° C | 23% | 1015.1 hPa | - | - | - | - |
| 1777908820 | 28.33° C | 23% | 1015.1 hPa | - | - | - | - |
| 1777908001 | 28.89° C | 23% | 1015.1 hPa | - | - | - | - |
| 1777907967 | 28.89° C | 23% | 1015.1 hPa | - | - | - | - |
| 1777906978 | 28.89° C | 22% | 1015.1 hPa | - | - | - | - |
| 1777906077 | 29.44° C | 21% | 1015.3 hPa | - | - | - | - |
| 1777905224 | 30° C | 21% | 1015.3 hPa | - | - | - | - |
| 1777905187 | 30° C | 21% | 1015.3 hPa | - | - | - | - |
| 1777904276 | 30° C | 21% | 1015.3 hPa | - | - | - | - |
| 1777903375 | 30° C | 19% | 1015.4 hPa | - | - | - | - |
| 1777902474 | 30.56° C | 20% | 1015.5 hPa | - | - | - | - |
| 1777901578 | 30.56° C | 20% | 1015.4 hPa | - | - | - | - |
* Rain since midnight (hover to see other rain measurements)
** Current wind speed in m/s (hover to see current wind gust speed)